Regional Weather Roundup
Issued by NWS

Home | Current Version | Previous Version | Text Only | Print | Product List | Glossary Off
Versions: 1 2 3 4 5 6 7 8 9 10 11 12 13 14 15 16 17 18 19 20 21 22 23 24 25 26 27 28 29 30 31 32 33 34 35 36 37 38 39 40 41 42 43 44 45 46 47 48 49 50

000
ASUS43 KBIS 041420
RWRND

NORTH DAKOTA REGIONAL WEATHER ROUNDUP
NATIONAL WEATHER SERVICE BISMARCK ND
900 AM CDT MON MAY 04 2015

NOTE: "FAIR" INDICATES FEW OR NO CLOUDS BELOW 12,000 FEET WITH NO
SIGNIFICANT WEATHER AND/OR OBSTRUCTIONS TO VISIBILITY.


NDZ001>003-009>011-017-041500-
NORTHWEST NORTH DAKOTA

CITY           SKY/WX    TMP DP  RH WIND       PRES   REMARKS
WILLISTON      MOSUNNY   48  29  47 CALM      30.17R
MINOT          SUNNY     51  32  48 SW8       30.18R
MINOT AFB      SUNNY     53  32  45 S9        30.18R
$$

NDZ018>021-031>035-040>046-041500-
SOUTHWEST NORTH DAKOTA

CITY           SKY/WX    TMP DP  RH WIND       PRES   REMARKS
BISMARCK       PTSUNNY   44  31  60 CALM      30.23R
DICKINSON      MOSUNNY   52  28  39 SE15      30.18R
GARRISON         N/A     48  32  53 S5        30.19R
HETTINGER ARPT CLOUDY    47  28  47 SE8       30.21R
$$

NDZ004>008-012>016-024-026-027-054-041500-
NORTHEAST NORTH DAKOTA

CITY           SKY/WX    TMP DP  RH WIND       PRES   REMARKS
GRAND FORKS    MOSUNNY   50  36  58 CALM      30.22R
GRND FRKS AFB  SUNNY     50  37  59 SE3       30.21R
DEVILS LAKE    SUNNY     54  37  54 S10       30.21R
$$

NDZ022-023-025-028>030-036>039-047>053-041500-
SOUTHEAST NORTH DAKOTA

CITY           SKY/WX    TMP DP  RH WIND       PRES   REMARKS
FARGO          PTSUNNY   54  34  46 E5        30.20R
JAMESTOWN      CLOUDY    49  33  54 VRB3      30.21R
$$



USA.gov is the U.S. government's official web portal to all federal, state and local government web resources and services.